Regional Weather Roundup
Issued by NWS

Home | Current Version | Previous Version | Graphics & Text | Print | Product List | Glossary On
Versions: 1 2 3 4 5 6 7 8 9 10 11 12 13 14 15 16 17 18 19 20 21 22 23 24 25 26 27 28 29 30 31 32 33 34 35 36 37 38 39 40 41 42 43 44 45 46 47 48 49 50
000
ASUS45 KBOU 040707
RWRCO

WEATHER ROUNDUP FOR COLORADO
NATIONAL WEATHER SERVICE DENVER/BOULDER CO
100 AM MDT WED MAY 04 2016

NOTE: "FAIR" INDICATES FEW OR NO CLOUDS BELOW 12000 FEET WITH NO
SIGNIFICANT WEATHER AND/OR OBSTRUCTIONS TO VISIBILITY.

COZ001>005-013-030-031-040800-
...NORTHWEST COLORADO...

CITY           SKY/WX    TMP DP  RH WIND       PRES   REMARKS
CRAIG          FAIR      37  31  78 CALM      30.29R
HAYDEN         FAIR      45  28  53 SE5       30.30R
MEEKER         FAIR      41  31  67 E8        30.30R
MOUNT WERNER   NOT AVBL
STEAMBOAT SPGS FAIR      41  30  66 CALM      30.32S
WALDEN         FAIR      30  25  80 SE9       30.39S WCI  22
$$

COZ006>008-011-040800-
...WEST CENTRAL VALLEYS...

CITY           SKY/WX    TMP DP  RH WIND       PRES   REMARKS
GRAND JUNCTION FAIR      51  35  54 NE7       30.19R
MONTROSE       FAIR      50  29  44 SE12      30.27R
EAGLE          FAIR      43  27  52 SE5       30.34R
RIFLE          FAIR      46  33  60 NE3       30.26R
DELTA          NOT AVBL
NUCLA          NOT AVBL
$$

COZ017>023-064>068-040800-
...SOUTHWEST COLORADO...

CITY           SKY/WX    TMP DP  RH WIND       PRES   REMARKS
DURANGO        FAIR      44  35  70 E3        30.31R
CORTEZ         FAIR      41  31  67 E7        30.28R
PAGOSA SPRINGS FAIR      38  31  74 CALM      30.37R
TELLURIDE      FAIR      41  26  55 S7        30.43S
WOLF CREEK PAS FAIR      32  23  69 SW15      30.56S WCI  22
$$

COZ009-010-012-014-032>034-037-058>063-040800-
...CENTRAL COLORADO...

CITY           SKY/WX    TMP DP  RH WIND       PRES   REMARKS
ASPEN          FAIR      39  24  55 SW8       30.35S
BUENA VISTA    FAIR      37  25  62 NW7       30.40R
COPPER MTN     NOT AVBL
BERTHOUD PASS  FAIR      28  18  64 NW16      30.54S WCI  17
COTTONWOOD PAS FAIR      43   9  24 SW8       30.45S
GUNNISON       FAIR      36  25  64 NE3       30.39R
KREMMLING      FAIR      34  25  69 CALM      30.38R
LEADVILLE      FAIR      26  16  65 NE3       30.44S
MONARCH PASS   FAIR      34  12  40 E6        30.64R WCI  29
SALIDA         FAIR      40  25  54 W7        30.45S
SUNLIGHT       FAIR      37  23  56 NE3       30.51S
WILKERSON PASS FAIR      32  18  55 CALM      30.53S
$$

COZ069>075-040800-
...SAN LUIS VALLEY/SANGRE DE CRISTO MOUNTAINS...

CITY           SKY/WX    TMP DP  RH WIND       PRES   REMARKS
ALAMOSA        FAIR      37  29  72 SE9       30.35R
LA VETA PASS   FAIR      34  21  60 NE9       30.45F WCI  26
SAGUACHE       FAIR      36  27  69 NW6       30.38R
$$

COZ035-036-038>040-040800-
...NORTHERN COLORADO FRONT RANGE...

CITY           SKY/WX    TMP DP  RH WIND       PRES   REMARKS
DENVER INTL AP FAIR      47  31  53 SW10      30.26S
DMNS CITY PARK   N/A     48  30  49 SE9       30.27S
AURORA         FAIR      46  32  58 SW7       30.28S
FRONT RANGE AP NOT AVBL
ERIE MUNI ARPT FAIR      41  35  80 CALM      30.26S
BOULDER MUN AP FAIR      54  28  37 SW7       30.25S
CENTENNIAL     FAIR      44  30  57 SW5       30.29R
BROOMFIELD     FAIR      48  32  53 W9        30.27S
FORT COLLINS   FAIR      46  36  66 CALM      30.26R
LONGMONT       FAIR      48  33  56 W6        30.27S
$$

COZ041-046-047-076>085-087-088-040800-
...PIKES PEAK/PALMER DIVIDE AND SOUTHERN FOOTHILLS...

CITY           SKY/WX    TMP DP  RH WIND       PRES   REMARKS
COLO. SPRINGS  FAIR      46  27  47 N7        30.32R
A. F. ACADEMY  FAIR      36  28  75 N7        30.32S
SCHRIEVER AFB  NOT AVBL
ELLICOTT       FAIR     N/A N/A N/A N3        30.29S
FALCON         FAIR      40  29  64 NW8       30.34S
FORT CARSON    FAIR      44  29  55 NW10      30.29R
LIMON          FAIR      38  35  89 N5        30.26R
MONUMENT HILL  FAIR      41  28  60 SW9       30.35S
TRINIDAD       FAIR      43  30  60 W15       30.29S
$$

COZ042>045-048>051-090-091-040800-
...NORTHEAST COLORADO...

CITY           SKY/WX    TMP DP  RH WIND       PRES   REMARKS
GREELEY ARPT   FAIR      45  37  76 CALM      30.25R
AKRON          FAIR      45  29  53 W8        30.21R
BURLINGTON     FAIR      41  34  76 W9        30.18R
WRAY           NOT AVBL
STERLING       FAIR      41  36  81 S5        30.18S
HOLYOKE        NOT AVBL
FORT MORGAN    FAIR      44  36  73 W8        30.22S
$$

COZ086-089-092>099-040800-
...SOUTHEAST COLORADO...

CITY           SKY/WX    TMP DP  RH WIND       PRES   REMARKS
PUEBLO         FAIR      48  35  60 W7        30.25R
LA JUNTA       FAIR      49  38  65 NW9       30.22R
LAMAR          FAIR      41  36  82 SW8       30.17R
SPRINGFIELD      N/A     39  33  79 W6        30.20S
$$



USA.gov is the U.S. government's official web portal to all federal, state and local government web resources and services.